User: anonymous   Login
Location: Ailly
(50.0793°N, 1.9944°E)
Time: 11:36:03
(UTC+00:00)
Language:

Cosmos 1833 Rocket - Orbit

View from above orbital plane
View from above orbital plane
View from above satellite
View from above satellite

Ground track
Ground track

The orbit is defined by the following mean orbital elements,

1 17590U          26064.03370830 +.00000000 +00000-0 -59456-4 0 00001
2 17590  71.0015 286.3071 0003628 152.8419 207.2895 14.17165983    02
Epoch (UTC): 05 March 2026 00:48:32
Eccentricity: 0.0003628
inclination: 71.0015°
perigee height: 832 km
apogee height: 838 km
right ascension of ascending node: 286.3071°
argument of perigee: 152.8419°
revolutions per day: 14.17165983
mean anomaly at epoch: 207.2895°

The dashed part of the orbit path shows where the satellite is in the earth's shadow,  

DLR